Regional Weather Roundup
Issued by NWS

Home | Current Version | Previous Version | Graphics & Text | Print | Product List | Glossary Off
Versions: 1 2 3 4 5 6 7 8 9 10 11 12 13 14 15 16 17 18 19 20 21 22 23 24 25 26 27 28 29 30 31 32 33 34 35 36 37 38 39 40 41 42 43 44 45 46 47 48 49 50

000
ASUS43 KFSD 190210
RWRSD

WEATHER ROUNDUP FOR SOUTH DAKOTA
NATIONAL WEATHER SERVICE SIOUX FALLS SD
800 PM CST THU DEC 18 2014

NOTE: "FAIR" INDICATES FEW OR NO CLOUDS BELOW 12,000 FEET WITH NO
SIGNIFICANT WEATHER AND/OR OBSTRUCTIONS TO VISIBILITY.


SDZ001>005-009-010-012>017-190300-
NORTHWEST AND NORTH CENTRAL SOUTH DAKOTA

CITY           SKY/WX    TMP DP  RH WIND       PRES   REMARKS
BUFFALO          N/A     30  24  78 S8        29.90S WCI  22
FAITH            N/A     24  19  81 S14       29.99F WCI  12
MOBRIDGE       CLOUDY    27  24  89 SE7       30.02S WCI  19
$$

SDZ012>016-024>037-041>051-057-063-072>074-190300-
SOUTHWEST AND SOUTH CENTRAL SOUTH DAKOTA

CITY           SKY/WX    TMP DP  RH WIND       PRES   REMARKS
RAPID CTY ARPT CLEAR     27  22  81 CALM      30.00S
PIERRE         CLOUDY    27  24  89 S6        30.07R WCI  20
CUSTER         CLEAR     27  16  63 SW3       29.98S
ELLSWORTH AFB  CLEAR     27  24  87 W5        30.00R WCI  22
PHILIP         CLEAR     19  16  88 CALM      30.04S
PINE RIDGE     PTCLDY    19  15  84 NE5       30.03S WCI  12
SPEARFISH      FAIR      32  19  59 W7        29.99S WCI  26
WINNER         FAIR      26  22  84 S12       30.08S WCI  16
$$

SDZ004>011-016>023-039-040-190300-
NORTHEAST SOUTH DAKOTA

CITY           SKY/WX    TMP DP  RH WIND       PRES   REMARKS
ABERDEEN       CLOUDY    26  22  84 S10       30.12F WCI  16
WATERTOWN      CLOUDY    24  21  88 S10       30.12S FOG     WCI  14
SISSETON         N/A     20  18  92 S12       30.16F WCI   8
$$

SDZ017-020-022-023-036>040-048>070-190300-
SOUTHEAST SOUTH DAKOTA

CITY           SKY/WX    TMP DP  RH WIND       PRES   REMARKS
SIOUX FALLS    CLOUDY    27  23  85 S9        30.17F WCI  18
HURON          CLOUDY    26  23  88 SE7       30.14S WCI  18
CHAMBERLAIN    CLOUDY    27  25  91 S6        30.10S WCI  20
MITCHELL       CLOUDY    28  24  85 S8        30.16S WCI  20
YANKTON        CLOUDY    28  23  80 SE3       30.19S
$$

ABBREVIATIONS USED IN REMARKS
   TC - TEMPERATURE IN CELSIUS
  WCI - WIND CHILL INDEX
   HX - HEAT INDEX
  VSB - VISIBILITY



USA.gov is the U.S. government's official web portal to all federal, state and local government web resources and services.